This demonstration page uses our WeatherBlox Daily Observations layout. Learn more.

38.89511, -77.03637

Hourly Observations for April 1, 2017

Temp ( °F °C ) Dew Point ( °F °C ) Humidity (%) Winds ( mph kmh ) Pressure ( in mb ) Visibility ( mi km ) Precip ( " mm )
12:52 am 00:52 Mostly Cloudy 47 8.3 44 6.7 90 90 NNW 7 11 29.68 1005 10 16.09344 0 0
1:34 am 01:34 Cloudy 46 8 45 7 93 93 NNW 6 9 29.68 1005 10 16.09344 0 0
1:52 am 01:52 Cloudy with Light Rain 47 8.3 44 6.7 90 90 NNW 8 13 29.68 1005 10 16.09344 0.001 0.001
2:01 am 02:01 Cloudy with Light Rain 47 8.3 44 6.7 90 90 NNW 8 13 29.68 1005 10 16.09344 0.001 0.001
2:37 am 02:37 Cloudy with Light Rain 47 8.3 45 7.2 93 93 WNW 3 6 29.71 1006 8 12.874752 0.01 0.254
2:52 am 02:52 Cloudy with Light Rain 47 8.3 45 7.2 93 93 W 5 7 29.68 1005 9 14.484096 0.01 0.254
3:52 am 03:52 Cloudy with Light Rain 47 8.3 45 7.2 93 93 NNW 6 9 29.71 1006 10 16.09344 0.001 0.001
4:07 am 04:07 Cloudy with Light Rain 48 8.9 45 7.2 89 89 NNW 7 11 29.74 1007 5 8.04672 0.001 0.001
4:29 am 04:29 Cloudy 47 8.3 46 7.8 97 97 NNW 6 9 29.74 1007 9 14.484096 0.001 0.001
4:52 am 04:52 Cloudy 48 8.9 46 7.8 93 93 NNW 9 15 29.74 1007 10 16.09344 0.001 0.001
5:52 am 05:52 Cloudy 48 8.9 46 7.8 93 93 NNW 7 11 29.77 1008 10 16.09344 0 0
6:52 am 06:52 Mostly Cloudy 49 9.4 44 6.7 83 83 NNW 9 15 29.8 1009 10 16.09344 0 0
7:52 am 07:52 Mostly Cloudy 49 9.4 44 6.7 83 83 NNW 8 13 29.83 1010 10 16.09344 0 0
8:52 am 08:52 Mostly Cloudy 52 11.1 45 7.2 77 77 NW 10 17 29.85 1011 10 16.09344 0 0
9:52 am 09:52 Mostly Cloudy 55 12.8 46 7.8 72 72 NNW 16 26 29.85 1011 10 16.09344 0 0
10:52 am 10:52 Mostly Cloudy 56 13.3 44 6.7 65 65 NNW 18 30 29.88 1012 10 16.09344 0 0
11:52 am 11:52 Cloudy 57 13.9 43 6.1 60 60 NW 17 28 29.91 1013 10 16.09344 0 0
12:52 pm 12:52 Mostly Cloudy 58 14.4 43 6.1 58 58 NNW 22 35 29.91 1013 10 16.09344 0 0
1:52 pm 13:52 Mostly Cloudy 60 15.6 44 6.7 56 56 NW 17 28 29.91 1013 10 16.09344 0 0
2:52 pm 14:52 Mostly Cloudy 60 15.6 42 5.6 52 52 NW 20 31 29.91 1013 10 16.09344 0 0
3:52 pm 15:52 Mostly Cloudy 60 15.6 42 5.6 52 52 NNW 23 37 29.94 1014 10 16.09344 0 0
4:52 pm 16:52 Partly Cloudy 60 15.6 42 5.6 52 52 NNW 21 33 29.94 1014 10 16.09344 0 0
4:59 pm 16:59 Mostly Cloudy 59 15 41 5 51 51 NW 20 31 29.97 1015 10 16.09344 0 0
5:52 pm 17:52 Cloudy 57 13.9 39 3.9 51 51 NNW 18 30 29.97 1015 10 16.09344 0 0
6:52 pm 18:52 Cloudy 55 12.8 38 3.3 53 53 NNW 20 31 30.03 1017 10 16.09344 0 0
7:52 pm 19:52 Cloudy with Light Rain 48 9 46 8 94 94 NW 7 11 29.68 1005 6 9.656064 0 0
8:52 pm 20:52 Cloudy 52 11.1 38 3.3 59 59 NNW 18 30 30.09 1019 10 16.09344 0 0
9:52 pm 21:52 Cloudy 51 10.6 37 2.8 59 59 NW 9 15 30.09 1019 10 16.09344 0 0
10:52 pm 22:52 Cloudy 51 10.6 37 2.8 59 59 NW 13 20 30.12 1020 10 16.09344 0 0
11:52 pm 23:52 Cloudy 50 10 37 2.8 61 61 NW 13 20 30.12 1020 10 16.09344 0 0

Powered by AerisWeather